When you browse on this site, cookies collect data to enhance your experience and personalize the content and advertising you see.
Visit our Privacy Policy to learn more. By continuing to use the site, you agree to this use of cookies and data.
  • In Hungary
  • List of Countries
  • For 7 days
  • Water Temperature
  • Weather Map
  • News
  • Weather Widgets
  • user-avatar
    Login

    Hourly Weather Gameza

    Today, 3 April, Friday

    Time Temperature Precipitation Wind Pressure Humidity
    00:00 +11°C° 0 mm 1 mps 541 mmHg 95%
    01:00 +11°C° 0 mm 1 mps 540 mmHg 95%
    02:00 +11°C° 0 mm 1 mps 540 mmHg 95%
    03:00 +10°C° 0 mm 0 mps 540 mmHg 95%
    04:00 +9°C° 0 mm 0 mps 540 mmHg 95%
    05:00 +11°C° 0 mm 1 mps 540 mmHg 94%
    06:00 +12°C° 0 mm 1 mps 541 mmHg 93%
    07:00 +13°C° 0 mm 1 mps 542 mmHg 92%
    08:00 +14°C° 0.1 mm 1 mps 543 mmHg 86%
    09:00 +16°C° 0.1 mm 1 mps 544 mmHg 79%
    10:00 +19°C° 0.1 mm 1 mps 545 mmHg 73%
    11:00 +18°C° 0.7 mm 2 mps 544 mmHg 73%
    12:00 +18°C° 0.7 mm 2 mps 544 mmHg 74%
    13:00 +18°C° 0.7 mm 2 mps 543 mmHg 74%
    14:00 +18°C° 0.8 mm 2 mps 543 mmHg 77%
    15:00 +17°C° 0.8 mm 2 mps 542 mmHg 80%
    16:00 +16°C° 0.8 mm 2 mps 541 mmHg 83%
    17:00 +15°C° 0.4 mm 1 mps 541 mmHg 87%
    18:00 +14°C° 0.4 mm 1 mps 541 mmHg 90%
    19:00 +13°C° 0.4 mm 1 mps 540 mmHg 94%
    20:00 +12°C° 0 mm 1 mps 541 mmHg 94%
    21:00 +11°C° 0 mm 0 mps 541 mmHg 94%
    22:00 +10°C° 0 mm 0 mps 541 mmHg 94%
    23:00 +10°C° 0 mm 0 mps 540 mmHg 94%

    Tomorrow, 4 April, Saturday

    Time Temperature Precipitation Wind Pressure Humidity
    00:00 +11°C° 0 mm 1 mps 540 mmHg 94%
    01:00 +11°C° 0 mm 1 mps 540 mmHg 94%
    02:00 +11°C° 0 mm 1 mps 539 mmHg 94%
    03:00 +11°C° 0 mm 1 mps 539 mmHg 94%
    04:00 +10°C° 0 mm 0 mps 539 mmHg 94%
    05:00 +11°C° 0 mm 1 mps 540 mmHg 92%
    06:00 +12°C° 0 mm 1 mps 540 mmHg 91%
    07:00 +12°C° 0 mm 1 mps 541 mmHg 90%
    08:00 +13°C° 0.2 mm 1 mps 541 mmHg 89%
    09:00 +13°C° 0.2 mm 1 mps 542 mmHg 88%
    10:00 +14°C° 0.2 mm 1 mps 542 mmHg 87%
    11:00 +15°C° 0.2 mm 1 mps 542 mmHg 85%
    12:00 +15°C° 0.2 mm 2 mps 542 mmHg 82%
    13:00 +16°C° 0.2 mm 2 mps 542 mmHg 80%
    14:00 +16°C° 0.4 mm 2 mps 542 mmHg 79%
    15:00 +16°C° 0.4 mm 2 mps 541 mmHg 79%
    16:00 +17°C° 0.4 mm 2 mps 541 mmHg 78%
    17:00 +15°C° 0.2 mm 1 mps 541 mmHg 84%
    18:00 +14°C° 0.2 mm 1 mps 540 mmHg 89%
    19:00 +13°C° 0.2 mm 1 mps 540 mmHg 95%
    20:00 +12°C° 0 mm 1 mps 540 mmHg 94%
    21:00 +12°C° 0 mm 1 mps 540 mmHg 94%
    22:00 +11°C° 0 mm 1 mps 540 mmHg 94%
    23:00 +11°C° 0 mm 1 mps 540 mmHg 92%

    Day after tomorrow, 5 April, Sunday

    Time Temperature Precipitation Wind Pressure Humidity
    00:00 +11°C° 0 mm 1 mps 540 mmHg 91%
    01:00 +11°C° 0 mm 1 mps 539 mmHg 90%
    02:00 +11°C° 0 mm 1 mps 539 mmHg 90%
    03:00 +10°C° 0 mm 1 mps 539 mmHg 90%
    04:00 +10°C° 0 mm 1 mps 539 mmHg 91%
    05:00 +11°C° 0 mm 1 mps 540 mmHg 89%
    06:00 +12°C° 0 mm 1 mps 540 mmHg 88%
    07:00 +13°C° 0 mm 1 mps 541 mmHg 86%
    08:00 +15°C° 0.1 mm 1 mps 543 mmHg 80%
    09:00 +18°C° 0.1 mm 1 mps 544 mmHg 73%
    10:00 +19°C° 0.1 mm 2 mps 545 mmHg 66%
    11:00 +19°C° 0.5 mm 2 mps 545 mmHg 67%
    12:00 +19°C° 0.5 mm 2 mps 544 mmHg 67%
    13:00 +19°C° 0.5 mm 2 mps 543 mmHg 68%
    14:00 +19°C° 0.7 mm 2 mps 543 mmHg 71%
    15:00 +18°C° 0.7 mm 2 mps 542 mmHg 74%
    16:00 +17°C° 0.7 mm 2 mps 542 mmHg 76%
    17:00 +16°C° 0.2 mm 2 mps 541 mmHg 82%
    18:00 +14°C° 0.2 mm 1 mps 540 mmHg 88%
    19:00 +13°C° 0.2 mm 1 mps 540 mmHg 94%
    20:00 +12°C° 0 mm 1 mps 540 mmHg 94%
    21:00 +12°C° 0 mm 1 mps 540 mmHg 94%
    22:00 +11°C° 0 mm 1 mps 541 mmHg 94%
    23:00 +11°C° 0 mm 1 mps 540 mmHg 93%

    6 April, Monday

    Time Temperature Precipitation Wind Pressure Humidity
    00:00 +11°C° 0 mm 1 mps 540 mmHg 93%
    01:00 +11°C° 0 mm 1 mps 540 mmHg 93%
    02:00 +11°C° 0 mm 1 mps 540 mmHg 92%
    03:00 +10°C° 0 mm 1 mps 540 mmHg 90%
    04:00 +10°C° 0 mm 1 mps 539 mmHg 89%
    05:00 +11°C° 0 mm 1 mps 540 mmHg 87%
    06:00 +12°C° 0 mm 1 mps 541 mmHg 84%
    07:00 +12°C° 0 mm 1 mps 542 mmHg 82%
    08:00 +14°C° 0 mm 1 mps 543 mmHg 76%
    09:00 +16°C° 0 mm 1 mps 544 mmHg 70%
    10:00 +18°C° 0 mm 2 mps 546 mmHg 64%
    11:00 +19°C° 0.1 mm 2 mps 545 mmHg 63%
    12:00 +19°C° 0.1 mm 2 mps 545 mmHg 61%
    13:00 +20°C° 0.1 mm 2 mps 544 mmHg 60%
    14:00 +19°C° 0.2 mm 2 mps 544 mmHg 63%
    15:00 +19°C° 0.2 mm 2 mps 543 mmHg 66%
    16:00 +18°C° 0.2 mm 2 mps 543 mmHg 68%
    17:00 +17°C° 0.2 mm 2 mps 542 mmHg 77%
    18:00 +15°C° 0.2 mm 1 mps 542 mmHg 85%
    19:00 +13°C° 0.2 mm 1 mps 541 mmHg 93%
    20:00 +13°C° 0.1 mm 1 mps 541 mmHg 94%
    21:00 +13°C° 0.1 mm 1 mps 542 mmHg 94%
    22:00 +13°C° 0.1 mm 1 mps 542 mmHg 94%
    23:00 +12°C° 0 mm 1 mps 541 mmHg 94%

    7 April, Tuesday

    Time Temperature Precipitation Wind Pressure Humidity
    00:00 +12°C° 0 mm 1 mps 541 mmHg 94%
    01:00 +11°C° 0 mm 1 mps 540 mmHg 94%
    02:00 +11°C° 0 mm 1 mps 540 mmHg 94%
    03:00 +11°C° 0 mm 1 mps 540 mmHg 94%
    04:00 +10°C° 0 mm 1 mps 540 mmHg 94%
    05:00 +11°C° 0 mm 1 mps 540 mmHg 91%
    06:00 +12°C° 0 mm 1 mps 541 mmHg 87%
    07:00 +13°C° 0 mm 1 mps 542 mmHg 84%
    08:00 +14°C° 0 mm 1 mps 543 mmHg 77%
    09:00 +16°C° 0 mm 2 mps 544 mmHg 71%
    10:00 +18°C° 0 mm 2 mps 546 mmHg 64%
    11:00 +18°C° 0.5 mm 2 mps 545 mmHg 69%
    12:00 +17°C° 0.5 mm 2 mps 544 mmHg 75%
    13:00 +17°C° 0.5 mm 2 mps 543 mmHg 80%
    14:00 +17°C° 0.9 mm 2 mps 543 mmHg 81%
    15:00 +16°C° 0.9 mm 2 mps 542 mmHg 82%
    16:00 +16°C° 0.9 mm 2 mps 542 mmHg 82%
    17:00 +15°C° 0.3 mm 1 mps 542 mmHg 86%
    18:00 +14°C° 0.3 mm 1 mps 542 mmHg 89%
    19:00 +13°C° 0.3 mm 1 mps 542 mmHg 93%
    20:00 +13°C° 0 mm 1 mps 542 mmHg 92%
    21:00 +12°C° 0 mm 1 mps 542 mmHg 91%
    22:00 +12°C° 0 mm 1 mps 542 mmHg 90%
    23:00 +12°C° 0 mm 1 mps 541 mmHg 89%

    8 April, Wednesday

    Time Temperature Precipitation Wind Pressure Humidity
    00:00 +12°C° 0 mm 1 mps 541 mmHg 88%
    01:00 +11°C° 0 mm 1 mps 540 mmHg 87%
    02:00 +11°C° 0 mm 1 mps 540 mmHg 88%
    03:00 +11°C° 0 mm 1 mps 540 mmHg 88%
    04:00 +10°C° 0 mm 1 mps 539 mmHg 89%
    05:00 +11°C° 0 mm 1 mps 540 mmHg 88%
    06:00 +12°C° 0 mm 1 mps 541 mmHg 86%
    07:00 +13°C° 0 mm 1 mps 542 mmHg 85%
    08:00 +15°C° 0 mm 1 mps 543 mmHg 76%
    09:00 +18°C° 0 mm 1 mps 544 mmHg 67%
    10:00 +19°C° 0 mm 2 mps 546 mmHg 58%
    11:00 +20°C° 0.2 mm 2 mps 545 mmHg 59%
    12:00 +20°C° 0.2 mm 2 mps 545 mmHg 59%
    13:00 +20°C° 0.2 mm 2 mps 545 mmHg 60%
    14:00 +19°C° 0.3 mm 2 mps 544 mmHg 64%
    15:00 +19°C° 0.3 mm 2 mps 543 mmHg 68%
    16:00 +18°C° 0.3 mm 2 mps 542 mmHg 72%
    17:00 +16°C° 0.4 mm 2 mps 542 mmHg 79%
    18:00 +15°C° 0.4 mm 1 mps 541 mmHg 86%
    19:00 +13°C° 0.4 mm 1 mps 541 mmHg 94%
    20:00 +13°C° 0.1 mm 1 mps 541 mmHg 93%
    21:00 +12°C° 0.1 mm 1 mps 541 mmHg 93%
    22:00 +12°C° 0.1 mm 1 mps 542 mmHg 93%
    23:00 +12°C° 0 mm 1 mps 541 mmHg 93%
    Show more